Location: NJAA Observatory
(40.6819°N, 74.8979°W)
Time: 08:55:58
(UTC-04:00)

Courier 1B - All Passes

Search period start: 30 March 2015 00:00
Search period end: 09 April 2015 00:00
Orbit: 963 x 1209 km, 28.3° (Epoch: 29 March)

Date Brightness Start Highest point End Pass type
(mag) Time Alt. Az. Time Alt. Az. Time Alt. Az.
30 Mar - 00:32:40 10° SW 00:35:47 14° SSW 00:38:45 10° S night (unlit)
30 Mar - 17:59:10 10° S 18:02:45 15° SSE 18:06:24 10° SE daylight
30 Mar - 19:50:27 10° SW 19:55:59 26° S 20:01:18 10° ESE visible
30 Mar - 21:43:43 10° WSW 21:49:14 27° S 21:54:33 10° SE visible
30 Mar - 23:38:15 10° WSW 23:42:20 17° SSW 23:46:17 10° SSE visible
31 Mar - 17:06:58 10° S 17:09:11 12° SSE 17:11:36 10° SE daylight
31 Mar - 18:57:01 10° SW 19:02:25 24° SSE 19:07:39 10° ESE daylight
31 Mar - 20:49:59 10° WSW 20:55:42 28° S 21:01:11 10° SE visible
31 Mar - 22:44:08 10° WSW 22:48:52 20° SSW 22:53:26 10° SSE visible
01 Apr - 18:03:41 10° SSW 18:08:51 21° SSE 18:13:52 10° ESE daylight
01 Apr - 19:56:17 10° SW 20:02:09 29° S 20:07:45 10° ESE visible
01 Apr - 21:50:09 10° WSW 21:55:23 24° SSW 22:00:24 10° SE visible
01 Apr - 23:46:31 10° SW 23:48:24 11° SSW 23:50:03 10° S visible
02 Apr - 17:10:33 10° SSW 17:15:15 18° SSE 17:19:55 10° ESE daylight
02 Apr - 19:02:38 10° SW 19:08:34 28° S 19:14:15 10° ESE daylight
02 Apr - 20:56:14 10° WSW 21:01:52 26° S 21:07:14 10° SE visible
02 Apr - 22:51:22 10° SW 22:54:57 15° SSW 22:58:18 10° S visible
03 Apr - 16:17:42 10° S 16:21:39 15° SSE 16:25:40 10° SE daylight
03 Apr - 18:09:02 10° SW 18:14:58 27° S 18:20:39 10° ESE daylight
03 Apr - 20:02:23 10° WSW 20:08:19 29° S 20:13:57 10° SE visible
03 Apr - 21:56:57 10° WSW 22:01:29 18° SSW 22:05:46 10° SSE visible
04 Apr - 15:25:27 10° S 15:28:01 12° SSE 15:30:50 10° SE daylight
04 Apr - 17:15:33 10° SW 17:21:20 25° SSE 17:26:57 10° ESE daylight
04 Apr - 19:08:34 10° WSW 19:14:43 30° S 19:20:34 10° ESE daylight
04 Apr - 21:02:46 10° WSW 21:07:59 22° SSW 21:12:55 10° SSE visible
05 Apr - 16:22:12 10° SSW 16:27:42 22° SSE 16:33:06 10° ESE daylight
05 Apr - 18:14:48 10° SW 18:21:06 30° S 18:27:05 10° ESE daylight
05 Apr - 20:08:43 10° WSW 20:14:26 26° SSW 20:19:51 10° SE visible
05 Apr - 22:04:40 10° SW 22:07:30 13° SSW 22:10:05 10° S visible
06 Apr - 15:29:04 10° SSW 15:34:03 19° SSE 15:39:03 10° ESE daylight
06 Apr - 17:21:07 10° SW 17:27:27 29° S 17:33:31 10° ESE daylight
06 Apr - 19:14:45 10° WSW 19:20:51 28° S 19:26:38 10° SE daylight
06 Apr - 21:09:48 10° WSW 21:14:01 16° SSW 21:17:59 10° SSE visible
07 Apr - 14:36:16 10° S 14:40:24 16° SSE 14:44:40 10° ESE daylight
07 Apr - 16:27:31 10° SW 16:33:47 28° S 16:39:51 10° ESE daylight
07 Apr - 18:20:51 10° WSW 18:27:14 30° S 18:33:17 10° SE daylight
07 Apr - 20:15:23 10° WSW 20:20:30 20° SSW 20:25:19 10° SSE visible
08 Apr - 13:44:10 10° S 13:46:45 12° SSE 13:49:37 10° SE daylight
08 Apr - 15:34:02 10° SW 15:40:06 25° SSE 15:46:02 10° ESE daylight
08 Apr - 17:27:01 10° WSW 17:33:34 31° S 17:39:50 10° ESE daylight
08 Apr - 19:21:12 10° WSW 19:26:57 24° SSW 19:32:22 10° SE daylight
08 Apr - 21:18:38 10° SW 21:20:01 10° SSW 21:21:06 10° SSW visible
